STARLINK-32781, 62848

Orbit data source: Space-Track

STARLINK-32781, 62848 is a payload satellite owned by SpaceX/Seattle (US) in LEO that was launched on Mon, 27 Jan 2025 UTC via an FALCON 9 launch vehicle from the Air Force Eastern Test Range (AFETR). Payload-class satellites include a variety of spacecraft equipped with specific instruments for various scientific and technological missions. These include communications satellites like Starlink; space stations such as the ISS; scientific satellites like the Hubble; Earth observation satellites from companies like Planet Labs, Umbra, and HawkEye 360; GPS; miniature CubeSats for education and research; and military/defense satellites.

Loading next visibility...
Identifier
62848, 2025-019V
Orbit
LEO
Country
Flag of USUS
Related business
Manufacturer
SpaceX/Seattle
Mission
Operational Commercial Communications
Bus & Motor
STARLINK V2M, Unknown motor
Mass
730 kg wet, ~700 kg dry
Launch date (UTC)
2025-01-27 (1 year ago)
Launch vehicle
FALCON 9
Launch site
Air Force Eastern Test Range (AFETR)
Object type
Payload
Rocket body
Debris
Shape & HBR
Box + 2 Pan, 17.7 m
Radar Cross Section
33.884 m², Large (>1 m²)

Expand to show TLE details & history
Last TLE update: 23 hours ago

TLE from 23 hours ago
0 STARLINK-32781
1 62848U 25019V   26071.38963680  .00030489  00000-0  11117-2 0  9991
2 62848  43.0035  73.7586 0001234 327.7372  32.3404 15.27616241 62663
Epoch: 2026-03-12T09:21Z
TLE epoch observation values (Epoch: 2026-03-12T09:21:04.619Z)
Latitude
-0.00003°
Longitude
123.44911°
Altitude
482.001 km
Speed
7.627 km/s
True Right ascension
04h 55m 02s
True Declination
0° 00' 00"
Sunlit
Object was in daylight at epoch
Visualization orbit readout
Latitude
Unknown
Longitude
Unknown
Altitude
Unknown
Speed
Unknown
Apparent Right ascension
Unknown
Apparent Declination
Unknown
Sunlit
N/A
Visualization observer readout
Local Sidereal Time
13:05:49
Azimuth
Unknown
Elevation
Unknown
Doppler factor
Unknown
Orbital elements
Apogee altitude
485.732 km
Perigee altitude
484.038 km
Semi-major axis
6,863.022 km
Eccentricity
0.00012
Inclination
43.0035°
RAAN
73.7586°
Arg. of periapsis
327.7372°
True anomaly
32.34797°
Mean anomaly
32.3404°
Eccentric anomaly
32.34418°
Mean motion
3.81742 °/min
Orbital period
94.3 mins
BSTAR
0.0011117
Loading maneuver chart data...
Computing Atmospheric mass density...
Loading historical data...
Loading historical data...
Loading historical data...
Loading historical data...
Loading historical data...
Loading historical data...
Loading historical data...

Documentation

Showing up to 5 results
|